Location: D�derode
(51.8092°N, 10.1065°E)
Time: 00:20:49
(UTC+00:00)

Cosmos 1812 - Pass Details

Date: 25 April 2021
Orbit: 516 x 519 km, 82.5° (Epoch: 10 May)

Event Time Altitude Azimuth Distance (km) Brightness Sun altitude
Exits shadow 21:29:55 13° 71° (ENE) 1,596 5.1 -20.7°
Drops below altitude 10° 21:31:03 10° 54° (NE) 1,764 5.5 -20.7°
Sets 21:34:08 0° 27° (NNE) 2,659 6.8 -21.0°
